Weather in Karaftit

Russia / Republic of Buryatia     54°11′12″N   111°56′22″E
temp.,
°C
wind,
m/s
gust,
m/s
humid.,
%
clouds,
%
prec.,
mm/h
press.,
hPa
HPBL,
m
8 may, sat
sat823:00−5nw22885 0.0 101519
02:00−6nw22895 0.0 101515
05:00−7nw22919 0.0 101613
08:000nw23745 0.0 1012397
11:00+3nnw44595 0.0 10101233
14:00+5nnw454699 0.1 10081919
17:00+5n354340 0.0 10061847
20:000nw2267100 0.0 100924
9 may, sun
sun923:00−2nw1173100 0.0 101010
02:00−2wnw1175100 0.0 101010
05:00−3wnw1177100 0.0 101010
08:00+2wnw1161100 0.0 1009351
11:00+4wnw2248100 0.0 10071477
14:00+6nw2245100 0.1 10061594
17:00+4wnw2365100 0.4 1006687
20:00+1nw2281100 0.8 100810
10 may, mon
mon1023:000nne1189100 0.2 101012
02:00−2n0193100 0.2 101010
05:00−1ene119491 0.0 101026
08:00+2e3581100 0.1 1008581
11:00+3ese5673100 0.5 1007949
14:00+5ese3563100 1.1 10061140
17:00+2ssw1196100 1.4 1008232
20:00+1nnw1299100 1.9 1009135
11 may, tue
tue1123:00+1nne2499100 1.3 1010181
02:000n2399100 3.3 1010180
05:00−1n2294100 0.0 101142
08:00+3nne247396 0.0 1009555
11:00+6n345694 0.3 10071572
14:00+7nw565683 1.4 10061558
17:00+5nw786883 1.2 1006936
20:00+1nw388996 1.3 1010398
12 may, wed
wed1223:00−1nw379399 0.0 1010235
02:00−1nw3893100 0.1 1010391
05:00−1wnw279697 1.9 1009424
08:00+1nw467949 2.3 1008679
11:00+4nw666686 0.1 10061287
14:00+5nw775878 0.5 10051527
17:00+4nw79546 0.2 10041528
20:00+1wnw367349 0.3 1007115